Date String (YYYY-MM-DD hh:mm:ss) UTC,Instrument flags,absolute air pressure of the measurement (hPa),sample flow rate (lpm),inlet stack bypass flow (lpm),air temperature of the measurement (°C),ambient temperature measured by the external sensor (°C),aerosol sample conditioner tube jacket temperature (°C),OPC LED temperature (°C),internal box temperature (°C),relative humidity of the measurement (%),span deviation,mass concentration of particles derived from Lorenz-Mie calculation of OPC scattering (μg/m³),mass concentration of particles derived from Lorenz-Mie calculation of OPC scattering (μg/m³),mass concentration of particles derived from Lorenz-Mie calculation of OPC scattering (μg/m³)
DateTimeUTC,F1_M11,P_M11,Q1_M11,Q2_M11,T1_M11,T2_M11,T3_M11,T4_M11,T5_M11,U1_M11,ZSPAN_M11,X0_M11,X2_M11,X1_M11
2024-04-07 14:00:00,SystemResetWarning,0818.1,4.99,000.00,018.9,018.8,000.0,027.3,020.8,009.9,0000.0,0007.08,0001.18,0000.58
2024-04-07 14:01:00,SystemResetWarning,0818.1,5.00,000.00,018.9,018.4,000.0,027.3,020.6,009.9,0000.0,0006.72,0001.19,0000.59
2024-04-07 14:02:00,SystemResetWarning,0818.1,5.01,000.00,018.8,018.2,000.0,027.3,020.4,010.0,0000.0,0005.43,0001.20,0000.59
2024-04-07 14:03:00,SystemResetWarning,0818.2,4.99,000.00,018.7,018.1,000.0,027.3,020.3,010.1,0000.0,0005.28,0001.19,0000.60
2024-04-07 14:04:00,SystemResetWarning,0818.0,5.00,000.00,018.7,017.9,000.0,027.3,020.2,009.9,0000.0,0005.63,0001.20,0000.61
2024-04-07 14:05:00,SystemResetWarning,0818.1,4.99,000.00,018.6,017.8,000.0,027.2,020.1,009.9,0000.0,0006.88,0001.16,0000.60
2024-04-07 14:06:00,SystemResetWarning,0818.1,5.00,000.00,018.6,017.6,000.0,027.2,020.0,010.2,0000.0,0007.19,0001.12,0000.59
2024-04-07 14:07:00,SystemResetWarning,0818.2,5.00,000.00,018.5,017.4,000.0,027.2,020.0,010.1,0000.0,0007.33,0001.14,0000.59
2024-04-07 14:08:00,SystemResetWarning,0818.2,5.00,000.00,018.4,017.3,000.0,027.2,020.0,010.2,0000.0,0007.52,0001.14,0000.59
2024-04-07 14:09:00,SystemResetWarning,0818.0,5.01,000.00,018.4,017.3,000.0,027.2,020.0,010.3,0000.0,0007.40,0001.19,0000.60
2024-04-07 14:10:00,SystemResetWarning,0817.8,5.02,000.00,018.5,018.0,000.0,027.3,020.5,010.1,0000.0,0006.83,0001.18,0000.60
2024-04-07 14:11:00,SystemResetWarning,0818.0,4.99,000.00,018.8,019.1,000.0,027.3,021.1,010.0,0000.0,0006.73,0001.22,0000.60
2024-04-07 14:12:00,SystemResetWarning,0818.2,4.98,000.00,019.0,019.2,000.0,027.3,021.1,010.0,0000.0,0006.25,0001.25,0000.60
2024-04-07 14:13:00,SystemResetWarning,0818.1,5.00,000.00,019.0,019.0,000.0,027.3,020.9,010.0,0000.0,0005.74,0001.28,0000.61
2024-04-07 14:14:00,SystemResetWarning,0818.2,5.00,000.00,018.9,018.7,000.0,027.3,020.7,009.8,0000.0,0005.85,0001.34,0000.61
2024-04-07 14:15:00,SystemResetWarning,0818.3,5.00,000.00,018.9,018.5,000.0,027.3,020.5,010.0,0000.0,0005.66,0001.31,0000.60
2024-04-07 14:16:00,SystemResetWarning,0818.3,5.00,000.00,018.8,018.3,000.0,027.3,020.4,010.0,0000.0,0004.39,0001.31,0000.60
2024-04-07 14:17:00,SystemResetWarning,0818.3,5.00,000.00,018.8,018.1,000.0,027.3,020.3,010.0,0000.0,0003.73,0001.35,0000.59
2024-04-07 14:18:00,SystemResetWarning,0818.2,5.00,000.00,018.7,017.9,000.0,027.3,020.2,009.9,0000.0,0003.49,0001.33,0000.59
2024-04-07 14:19:00,SystemResetWarning,0818.1,5.01,000.00,018.6,017.8,000.0,027.2,020.1,009.9,0000.0,0003.06,0001.36,0000.60
2024-04-07 14:20:00,SystemResetWarning,0818.3,5.00,000.00,018.6,017.6,000.0,027.2,020.0,009.9,0000.0,0002.92,0001.33,0000.60
2024-04-07 14:21:00,SystemResetWarning,0818.3,5.01,000.00,018.5,017.5,000.0,027.2,020.0,009.9,0000.0,0002.77,0001.28,0000.60
2024-04-07 14:22:00,SystemResetWarning,0818.1,5.00,000.00,018.5,017.5,000.0,027.2,020.1,009.9,0000.0,0002.51,0001.23,0000.60
2024-04-07 14:23:00,SystemResetWarning,0818.2,5.00,000.00,018.6,018.3,000.0,027.3,020.6,009.9,0000.0,0002.25,0001.16,0000.59
2024-04-07 14:24:00,SystemResetWarning,0818.3,5.00,000.00,018.9,019.2,000.0,027.4,021.1,009.9,0000.0,0002.16,0001.17,0000.58
2024-04-07 14:25:00,SystemResetWarning,0818.1,4.99,000.00,019.0,019.1,000.0,027.3,021.0,009.9,0000.0,0002.31,0001.11,0000.58
2024-04-07 14:26:00,SystemResetWarning,0818.3,4.98,000.00,018.9,018.8,000.0,027.3,020.8,009.8,0000.0,0004.26,0001.15,0000.58
2024-04-07 14:27:00,SystemResetWarning,0818.3,5.01,000.00,018.9,018.6,000.0,027.3,020.6,009.8,0000.0,0005.66,0001.18,0000.58
2024-04-07 14:28:00,SystemResetWarning,0818.4,5.01,000.00,018.8,018.3,000.0,027.3,020.5,009.9,0000.0,0007.55,0001.19,0000.59
2024-04-07 14:29:00,SystemResetWarning,0818.5,4.99,000.00,018.8,018.2,000.0,027.3,020.3,010.1,0000.0,0007.61,0001.23,0000.59
2024-04-07 14:30:00,SystemResetWarning,0818.5,4.99,000.00,018.7,018.0,000.0,027.3,020.2,010.1,0000.0,0007.66,0001.23,0000.59
2024-04-07 14:31:00,SystemResetWarning,0818.4,5.00,000.00,018.7,017.8,000.0,027.3,020.1,010.0,0000.0,0007.72,0001.26,0000.58
2024-04-07 14:32:00,SystemResetWarning,0818.4,5.01,000.00,018.6,017.7,000.0,027.2,020.1,010.1,0000.0,0007.78,0001.28,0000.58
2024-04-07 14:33:00,SystemResetWarning,0818.4,5.00,000.00,018.5,017.5,000.0,027.2,020.0,010.1,0000.0,0008.16,0001.30,0000.58
2024-04-07 14:34:00,SystemResetWarning,0818.2,4.99,000.00,018.5,017.4,000.0,027.2,020.0,010.1,0000.0,0008.39,0001.28,0000.58
2024-04-07 14:35:00,SystemResetWarning,0818.0,4.99,000.00,018.4,017.3,000.0,027.2,020.0,010.0,0000.0,0008.42,0001.28,0000.58
2024-04-07 14:36:00,SystemResetWarning,0818.1,5.00,000.00,018.5,017.9,000.0,027.3,020.4,010.0,0000.0,0008.25,0001.29,0000.59
2024-04-07 14:37:00,SystemResetWarning,0818.1,5.01,000.00,018.7,018.9,000.0,027.4,021.0,009.7,0000.0,0007.04,0001.26,0000.59
2024-04-07 14:38:00,SystemResetWarning,0818.1,4.99,000.00,019.0,019.6,000.0,027.4,021.4,009.7,0000.0,0006.18,0001.24,0000.58
2024-04-07 14:39:00,SystemResetWarning,0818.1,4.98,000.00,019.1,019.5,000.0,027.4,021.3,009.6,0000.0,0004.58,0001.17,0000.57
2024-04-07 14:40:00,SystemResetWarning,0818.2,5.00,000.00,019.1,019.1,000.0,027.4,021.0,009.6,0000.0,0004.72,0001.16,0000.58
2024-04-07 14:41:00,SystemResetWarning,0818.2,5.00,000.00,019.0,018.8,000.0,027.4,020.8,009.7,0000.0,0004.59,0001.13,0000.57
2024-04-07 14:42:00,SystemResetWarning,0818.1,5.00,000.00,019.0,018.6,000.0,027.4,020.7,009.7,0000.0,0004.59,0001.14,0000.57
2024-04-07 14:43:00,SystemResetWarning,0818.2,5.01,000.00,018.9,018.4,000.0,027.4,020.5,009.6,0000.0,0005.47,0001.15,0000.56
2024-04-07 14:44:00,SystemResetWarning,0818.1,5.01,000.00,018.9,018.2,000.0,027.4,020.4,009.7,0000.0,0005.68,0001.16,0000.56
2024-04-07 14:45:00,SystemResetWarning,0818.1,5.01,000.00,018.8,018.0,000.0,027.4,020.3,009.6,0000.0,0005.02,0001.17,0000.57
2024-04-07 14:46:00,SystemResetWarning,0818.2,5.00,000.00,018.7,017.8,000.0,027.3,020.2,009.5,0000.0,0004.89,0001.17,0000.57
2024-04-07 14:47:00,SystemResetWarning,0818.2,4.99,000.00,018.7,017.7,000.0,027.3,020.1,009.7,0000.0,0005.33,0001.13,0000.56
2024-04-07 14:48:00,SystemResetWarning,0818.1,5.00,000.00,018.6,017.6,000.0,027.3,020.1,009.7,0000.0,0006.13,0001.15,0000.56
2024-04-07 14:49:00,SystemResetWarning,0818.3,5.00,000.00,018.5,017.5,000.0,027.2,020.0,009.8,0000.0,0006.74,0001.21,0000.57
2024-04-07 14:50:00,SystemResetWarning,0818.5,5.00,000.00,018.5,017.7,000.0,027.3,020.2,009.8,0000.0,0006.48,0001.30,0000.58
2024-04-07 14:51:00,SystemResetWarning,0818.5,5.01,000.00,018.7,018.6,000.0,027.4,020.8,009.9,0000.0,0007.10,0001.35,0000.58
2024-04-07 14:52:00,SystemResetWarning,0818.3,4.99,000.00,018.9,019.2,000.0,027.4,021.2,009.8,0000.0,0007.09,0001.37,0000.59
2024-04-07 14:53:00,SystemResetWarning,0818.1,4.99,000.00,019.0,019.0,000.0,027.3,020.9,009.7,0000.0,0006.96,0001.32,0000.59
2024-04-07 14:54:00,SystemResetWarning,0818.3,5.01,000.00,018.9,018.6,000.0,027.3,020.7,009.8,0000.0,0007.14,0001.30,0000.60
2024-04-07 14:55:00,SystemResetWarning,0818.1,5.00,000.00,018.9,018.4,000.0,027.3,020.5,009.9,0000.0,0007.23,0001.31,0000.60
2024-04-07 14:56:00,SystemResetWarning,0818.1,5.01,000.00,018.8,018.2,000.0,027.3,020.4,009.8,0000.0,0007.41,0001.33,0000.60
2024-04-07 14:57:00,SystemResetWarning,0818.2,5.00,000.00,018.8,018.0,000.0,027.3,020.3,009.9,0000.0,0007.62,0001.39,0000.61
2024-04-07 14:58:00,SystemResetWarning,0818.2,5.00,000.00,018.7,017.9,000.0,027.3,020.2,009.9,0000.0,0007.94,0001.40,0000.61
2024-04-07 14:59:00,SystemResetWarning,0818.3,5.00,000.00,018.6,017.8,000.0,027.2,020.1,009.9,0000.0,0007.71,0001.40,0000.62
